This is the latest recevied weather packets stored in our database for station/object SV9TNF-1. If no packets are shown the sender has not sent any weather packets the latest 10 day(s).
| Time | Temp. | Humidity | Pressure | Rain* | Wind** | Luminosity | Snow |
|---|---|---|---|---|---|---|---|
| 1778132750 | 18.33° C | 63% | 1005.8 hPa | 0 mm | 2.68 m/s, 128° | - | - |
| 1778132450 | 18.33° C | 64% | 1005.8 hPa | 0 mm | 0.89 m/s, 131° | - | - |
| 1778132150 | 17.78° C | 63% | 1005.8 hPa | 0 mm | 4.02 m/s, 115° | - | - |
| 1778131850 | 17.78° C | 63% | 1005.8 hPa | 0 mm | 0 m/s | - | - |
| 1778131549 | 17.78° C | 63% | 1005.8 hPa | 0 mm | 3.13 m/s, 132° | - | - |
| 1778131249 | 17.78° C | 63% | 1005.8 hPa | 0 mm | 4.02 m/s, 121° | - | - |
| 1778130949 | 17.78° C | 64% | 1005.8 hPa | 0 mm | 1.79 m/s, 124° | - | - |
| 1778130649 | 17.78° C | 65% | 1005.8 hPa | 0 mm | 2.24 m/s, 128° | - | - |
| 1778130349 | 17.78° C | 63% | 1005.8 hPa | 0 mm | 0.89 m/s, 132° | - | - |
| 1778130049 | 17.22° C | 64% | 1005.8 hPa | 0 mm | 0.89 m/s, 142° | - | - |
| 1778129749 | 17.78° C | 61% | 1005.8 hPa | 0 mm | 0.89 m/s, 135° | - | - |
| 1778129449 | 17.22° C | 62% | 1005.8 hPa | 0 mm | 0 m/s | - | - |
| 1778129149 | 16.67° C | 62% | 1005.8 hPa | 0 mm | 0 m/s | - | - |
| 1778128849 | 16.67° C | 62% | 1005.8 hPa | 0 mm | 0 m/s | - | - |
| 1778128549 | 16.67° C | 63% | 1005.8 hPa | 0 mm | 0 m/s | - | - |
| 1778128249 | 16.67° C | 64% | 1005.8 hPa | 0 mm | 0 m/s | - | - |
| 1778127948 | 16.11° C | 63% | 1005.8 hPa | 0 mm | 0.45 m/s, 106° | - | - |
| 1778127648 | 16.67° C | 61% | 1005.4 hPa | 0 mm | 0 m/s | - | - |
| 1778127348 | 16.67° C | 59% | 1005.4 hPa | 0 mm | 1.34 m/s, 128° | - | - |
| 1778127048 | 16.67° C | 54% | 1005.8 hPa | 0 mm | 1.34 m/s, 112° | - | - |
| 1778126748 | 16.67° C | 53% | 1005.8 hPa | 0 mm | 0 m/s | - | - |
| 1778126448 | 16.11° C | 54% | 1005.8 hPa | 0 mm | 0.89 m/s, 98° | - | - |
| 1778126147 | 16.11° C | 52% | 1005.4 hPa | 0 mm | 0 m/s | - | - |
| 1778125848 | 16.11° C | 51% | 1005.4 hPa | 0 mm | 0.89 m/s, 124° | - | - |
| 1778125547 | 16.11° C | 53% | 1005.4 hPa | 0 mm | 0 m/s | - | - |
* Rain latest hour (hover to see other rain measurements)
** Current wind speed in m/s (hover to see current wind gust speed)